KB1JDX Weather Reports


time (UTC)temp
C
wind
direction
speed
KPH
gust
KPH
rain 1hr
cm
rain 24hr
cm
rain mn
cm
humidity
%
barometer
mb
20260902195205 23 205 0.0 9.7 0.00 0.00 0.00 50 1020.2
20260902193205 23 203 0.0 9.7 0.00 0.00 0.00 50 1020.1
20260902193102 23 203 0.0 9.7 0.00 0.00 0.00 50 1020.2
20260902191742 23 184 11.3 12.9 0.00 0.00 0.00 49 1020.5
20260902191205 24 182 0.0 9.7 0.00 0.00 0.00 50 1020.3
20260902185206 25 212 0.0 12.9 0.00 0.00 0.00 49 1020.5
20260902183205 24 192 0.0 12.9 0.00 0.00 0.00 49 1020.4
20260902183102 24 192 0.0 12.9 0.00 0.00 0.00 49 1020.4
20260902181205 23 184 11.3 12.9 0.00 0.00 0.00 49 1020.5
20260902175207 23 195 0.0 12.9 0.00 0.00 0.00 49 1020.5
20260902173205 23 207 0.0 12.9 0.00 0.00 0.00 48 1020.6
20260902173102 23 207 0.0 12.9 0.00 0.00 0.00 48 1020.6
20260902163207 23 160 0.0 0.0 0.00 0.00 0.00 42 1021.0
20260902163102 23 161 0.0 0.0 0.00 0.00 0.00 43 1021.1
20260902161205 22 211 0.0 0.0 0.00 0.00 0.00 39 1021.0
20260902155205 22 220 0.0 0.0 0.00 0.00 0.00 38 1021.1
20260902153205 22 176 0.0 0.0 0.00 0.00 0.00 30 1021.6
20260902153102 22 176 0.0 0.0 0.00 0.00 0.00 30 1021.6
20260902151207 21 176 0.0 0.0 0.00 0.00 0.00 30 1021.5
20260902145205 21 218 0.0 0.0 0.00 0.00 0.00 19 1021.5
20260902143102 20 345 0.0 0.0 0.00 0.00 0.00 100 1021.5
20260902141205 20 349 0.0 0.0 0.00 0.00 0.00 100 1021.3
20260902135206 19 349 0.0 0.0 0.00 0.00 0.00 100 1021.2
20260902133205 18 349 0.0 0.0 0.00 0.00 0.00 100 1021.1
20260902133102 18 349 0.0 0.0 0.00 0.00 0.00 100 1021.1
20260902131205 18 252 0.0 0.0 0.00 0.00 0.00 100 1020.8
20260902125204 18 252 0.0 0.0 0.00 0.00 0.00 100 1021.0
20260902123204 17 169 0.0 0.0 0.00 0.00 0.00 100 1021.1
20260902123102 17 168 0.0 0.0 0.00 0.00 0.00 100 1021.0
20260902121205 17 167 0.0 0.0 0.00 0.00 0.00 100 1021.0
20260902113206 16 167 0.0 0.0 0.00 0.00 0.00 100 1021.2
20260902113102 16 167 0.0 0.0 0.00 0.00 0.00 100 1021.1
20260902103205 15 167 0.0 0.0 0.00 0.00 0.00 100 1020.9
20260902103102 15 167 0.0 0.0 0.00 0.00 0.00 100 1020.9
20260902102130 15 167 0.0 0.0 0.00 0.00 0.00 100 1020.0
20260902101205 15 167 0.0 0.0 0.00 0.00 0.00 100 1020.7
20260902093204 15 167 0.0 0.0 0.00 0.00 0.00 100 1020.1
20260902093102 15 167 0.0 0.0 0.00 0.00 0.00 100 1020.1
20260902091205 15 167 0.0 0.0 0.00 0.00 0.00 100 1020.0
20260902083205 15 167 0.0 0.0 0.00 0.00 0.00 100 1020.0
20260902083101 15 167 0.0 0.0 0.00 0.00 0.00 100 1020.0
20260902081204 15 167 0.0 0.0 0.00 0.00 0.00 100 1020.1
20260902075204 15 167 0.0 0.0 0.00 0.00 0.00 100 1019.7
20260902073102 15 167 0.0 0.0 0.00 0.00 0.00 100 1020.0
20260902071204 16 167 0.0 0.0 0.00 0.00 0.00 100 1019.6
20260902065204 16 167 0.0 0.0 0.00 0.00 0.00 100 1019.9
20260902063205 16 167 0.0 0.0 0.00 0.00 0.00 100 1020.0
20260902063102 16 167 0.0 0.0 0.00 0.00 0.00 100 1020.0
20260902061204 15 167 0.0 0.0 0.00 0.00 0.00 100 1020.0
20260902055204 15 167 0.0 0.0 0.00 0.00 0.00 100 1019.6
20260902053204 15 167 0.0 0.0 0.00 0.00 0.00 100 1019.6
20260902053102 15 167 0.0 0.0 0.00 0.00 0.00 100 1019.6
20260902051204 15 167 0.0 0.0 0.00 0.00 0.00 100 1019.0
20260902045204 15 167 0.0 0.0 0.00 0.00 0.00 100 1019.3
20260902043204 15 167 0.0 0.0 0.00 0.00 0.00 100 1019.4
20260902043101 15 167 0.0 0.0 0.00 0.00 0.00 100 1019.3
20260902033102 16 167 0.0 0.0 0.00 0.00 0.00 100 1018.8
20260902031204 16 167 0.0 0.0 0.00 0.00 0.00 100 1018.5
20260902023204 16 167 0.0 0.0 0.00 0.00 0.00 100 1018.8
20260902023101 16 167 0.0 0.0 0.00 0.00 0.00 100 1018.7
20260902021204 16 167 0.0 0.0 0.00 0.00 0.00 100 1018.5
20260902015204 16 167 0.0 0.0 0.00 0.00 0.00 100 1018.5
20260902015101 16 167 0.0 0.0 0.00 0.00 0.00 100 1018.4
20260902013604 16 167 0.0 0.0 0.00 0.00 0.00 100 1018.5
20260902013101 16 167 0.0 0.0 0.00 0.00 0.00 100 1018.5
20260902012805 16 167 0.0 0.0 0.00 0.00 0.00 100 1018.5
20260902012404 16 167 0.0 0.0 0.00 0.00 0.00 100 1018.5
20260902012205 16 167 0.0 0.0 0.00 0.00 0.00 100 1018.5
20260902012101 16 167 0.0 0.0 0.00 0.00 0.00 100 1018.5